Regional Weather Roundup
Issued by NWS Sterling, VA

Home | Current Version | Previous Version | Text Only | Print | Product List | Glossary On
Versions: 1 2 3 4 5 6 7 8 9 10 11 12 13 14 15 16 17 18 19 20 21 22 23 24 25 26 27 28
000
ASUS41 KLWX 231010
RWRLWX

REGIONAL WEATHER ROUNDUP
NATIONAL WEATHER SERVICE BALTIMORE MD/WASHINGTON DC
600 AM EDT THU OCT 23 2014

Note: "FAIR" indicates few or no clouds below 12,000 feet
with no significant weather and/or obstructions to visibility.
 TC=TEMPERATURE CELSIUS

 * =Non NWS site. Station does not report precipitation (e.g. rain,
    snow, etc.), thunder, or fog.

DCZ001-MDZ009-015-VAZ040>042-051-053>054-231100-
WASHINGTON METRO

CITY           SKY/WX    TMP DP  RH WIND       PRES   REMARKS
WASHINGTON NAT CLOUDY    55  41  59 NW17G25   29.89S
DULLES         MOCLDY    50  41  71 NW20G28   29.91R
ANDREWS AFB    CLOUDY    52  42  69 NW15      29.87S
FT BELVOIR     MOCLDY    53  42  66 NW15G28   29.90R
QUANTICO       MOCLDY    52  41  66 NW12G26   29.91F
COLLEGE PARK*  CLOUDY    54  43  66 NW9G16    29.88R
LEESBURG*      CLOUDY    52  45  76 NW20G28   29.93S
MANASSAS*      MOCLDY    52  43  71 NW16      29.92R
GAITHERSBURG*  CLOUDY    50  41  71 NW13G21   29.92S

$$

MDZ006>007-011-014-231100-
BALTIMORE METRO

CITY           SKY/WX    TMP DP  RH WIND       PRES   REMARKS
BWI AIRPORT    MOCLDY    52  43  71 NW10      29.86R
MD SCIENCE CTR   N/A     54  43  66 MISG      29.85R
MARTIN STATE   MOCLDY    54  46  76 NW10      29.96R
ANNAPOLIS      CLOUDY    54  44  69 NW14      29.84R
FORT MEADE*    CLOUDY    52  43  71 NW13      29.89R

$$

MDZ012-015-019>023-231100-
MARYLAND EASTERN SHORE

CITY           SKY/WX    TMP DP  RH WIND       PRES   REMARKS
OCEAN CITY     CLOUDY    51  47  86 NW10G20   29.76R
SALISBURY      CLOUDY    55  46  71 NW15G23   29.79R
BAY BRIDGE AP*   N/A     54  45  71 NW17G24   29.84R
CAMBRIDGE*     CLOUDY    55  46  71 NW15G25   29.81S VSB<1/4
EASTON*        CLOUDY    55  48  76 N15G25    29.85S

$$

MDZ017>025-231100-
SOUTHERN MARYLAND

CITY           SKY/WX    TMP DP  RH WIND       PRES   REMARKS
PATUXENT RIVER CLOUDY    53  44  71 NW18G29   29.84R
ST INIGOES     CLOUDY    53  42  66 NW13G20   29.85R
LEONARDTOWN*   CLOUDY    52  41  66 NW7       29.87S

$$

MDZ003>005-231100-
NORTH CENTRAL MARYLAND

CITY           SKY/WX    TMP DP  RH WIND       PRES   REMARKS
FREDERICK*     CLOUDY    55  43  62 NW10G16   29.94S
HAGERSTOWN APT CLOUDY    51  41  68 NW22      29.93S
WESTMINSTER*   CLOUDY    52  45  76 NW9G17    29.88S

$$

MDZ501>502-231100-
WESTERN MARYLAND

CITY           SKY/WX    TMP DP  RH WIND       PRES   REMARKS
OAKLAND*       FOG       37 N/A N/A NW8G24    30.06R VSB<1/4
CUMBERLAND*    MOCLDY    50  41  71 NW15G23   30.07S

$$

VAZ025>031-231100-
SHENANDOAH VALLEY

CITY           SKY/WX    TMP DP  RH WIND       PRES   REMARKS
WINCHESTER*    CLOUDY    52  37  58 NW14G22   29.97R
FRONT ROYAL*   CLOUDY    50  41  71 NW8       29.97S
LURAY*         PTSUNNY   52  43  71 NE5       29.99S
NEW MARKET*    PTSUNNY   47  39  73 CALM      30.01R
STAUNTON*      CLEAR     44  37  74 NW3       30.03R
WAYNESBORO*    FAIR      43  37  77 W5        30.01R

$$

WVZ021-048>050-054>055-231100-
EASTERN WEST VIRGINIA PANHANDLE

CITY           SKY/WX    TMP DP  RH WIND       PRES   REMARKS
MARTINSBURG    CLOUDY    52  39  61 NW17G25   29.96S
PETERSBURG*    CLOUDY    50  39  64 NW9       30.06S

$$

VAZ036>039-050-231100-
CENTRAL FOOTHILLS

CITY           SKY/WX    TMP DP  RH WIND       PRES   REMARKS
CHARLOTTESVILL CLEAR     51  38  60 NW12G22   29.95R
CULPEPER*      PTCLDY    54  43  66 NW8G16    29.94R
ORANGE*        CLEAR     43  41  93 NW3       29.96R
GORDONSVILLE*  FAIR      47  40  75 NW3       29.94R
WARRENTON*     FAIR      52  46  82 NW9G17    29.92S

$$

VAZ055>057-231100-
NORTH AND CENTRAL PIEDMONT

CITY           SKY/WX    TMP DP  RH WIND       PRES   REMARKS
FREDERICKSBRG* CLOUDY    53  43  67 NW7G21    29.91S
STAFFORD*      CLOUDY    51  41  67 NW15G22   29.95S

$$

NCZ024-NYZ072-PAZ021-071-VAZ022-071-231100-
OTHER REGIONAL OBSERVATIONS

CITY           SKY/WX    TMP DP  RH WIND       PRES   REMARKS
NEW YORK CITY  CLOUDY    51  47  86 VRB6      29.73S
PHILADELPHIA   CLOUDY    53  45  74 NW17      29.77R
PITTSBURGH     MOCLDY    46  42  86 NW15      30.13R
ROANOKE        PTCLDY    48  37  65 NW10      30.08S
RICHMOND       MOCLDY    51  42  71 W8        29.93R
RALEIGH        CLEAR     46  39  76 VRB3      30.00S

$$

ANZ530>537-231100-
MARINE OBSERVATIONS

STATION/POSITION TIME  TEMP    WIND        PRES
                       AIR SEA DIR/SP/G
                 (UTC) (F)     (DEG/KT/KT) (MB)
THOMAS PT LIGHT  1000   54 62  320/ 18/ 22 1011.2R
BALT KEY BRIDGE  1000   55     310/ 20/ 24 1010.2R
COVE POINT       1000   54     340/ 27/ 33 1010.0R
LEWISETTA        1000   54 60  330/ 18/ 26 1010.8R
SOLOMONS ISLAND  1000      64                N/A
PINEY POINT      1000          350/ 25/ 27   N/A

$$




USA.gov is the U.S. government's official web portal to all federal, state and local government web resources and services.